Sussex, NJ

2:52 AM EDT on March 29, 2017 (GMT -0400)
Sussex

Weather History for KFWN - February, 2014

Change the Weather History Date:

Wednesday, February 19, 2014

  Actual Average Record
Temperature  
Mean Temperature 26 °F -  
Max Temperature 42 °F 38 °F 66 °F (1981)
Min Temperature 10 °F 17 °F -16 °F (1979)
Degree Days  
Heating Degree Days 39    
Moisture  
Dew Point 28 °F    
Average Humidity 92    
Maximum Humidity 100    
Minimum Humidity 65    
Precipitation  
Precipitation 0.37 in - - ()
Sea Level Pressure  
Sea Level Pressure 29.84 in    
Wind  
Wind Speed 2 mph (NE)    
Max Wind Speed 10 mph    
Max Gust Speed 28 mph    
Visibility 3 miles    
Events Rain , Snow    
Averages and records for this station are not official NWS values.
T = Trace of Precipitation, MM = Missing Value Source: NWS Daily Summary

Daily Weather History Graph

Daily Weather History Graph

Search for Another Location

Airport or City:

Trip Planner

Search our weather history database for the weather conditions in past years. The results will help you decide how hot, cold, wet, or windy it might be!

Date:

Astronomy

Feb. 19, 2014 Rise Set
Actual Time 6:47 AM EST 5:37 PM EST
Civil Twilight 6:19 AM EST 6:05 PM EST
Nautical Twilight 5:47 AM EST 6:37 PM EST
Astronomical Twilight 5:15 AM EST 7:09 PM EST
Moon 10:31 PM EST (2/19) 8:49 AM EST (2/19)
Length of Visible Light 11h 45m
Length of Day
10h 49m
Waning Gibbous, 80% of the Moon is Illuminated
Feb 19
Waning Gibbous
Feb 22
Last Quarter
Mar 1
New
Mar 8
First Quarter
Mar 16
Full

Hourly Weather History & Observations

Time (EST) Temp. Windchill Dew Point Humidity Pressure Visibility Wind Dir Wind Speed Gust Speed Precip Events Conditions
12:53 AM 14.0 °F - 10.9 °F 88% 30.09 in 5.0 mi Calm Calm - N/A   Clear
1:53 AM 12.9 °F - 10.0 °F 88% 30.08 in 5.0 mi Calm Calm - N/A   Clear
2:53 AM 12.0 °F - 10.0 °F 92% 30.08 in 5.0 mi Calm Calm - N/A   Clear
3:53 AM 12.0 °F 5.9 °F 9.0 °F 88% 30.05 in 5.0 mi SSW 3.5 mph - N/A   Clear
4:53 AM 10.9 °F - 8.1 °F 88% 30.02 in 5.0 mi Calm Calm - N/A   Clear
5:53 AM 10.0 °F - 8.1 °F 92% 29.97 in 5.0 mi Calm Calm - N/A   Clear
6:53 AM 10.9 °F - 8.1 °F 88% 29.95 in 5.0 mi Calm Calm - N/A   Clear
7:53 AM 14.0 °F - 10.9 °F 88% 29.95 in 4.0 mi Calm Calm - N/A   Overcast
8:53 AM 19.9 °F - 18.0 °F 92% 29.92 in 4.0 mi Calm Calm - N/A   Overcast
9:53 AM 24.1 °F - 19.0 °F 81% 29.93 in 5.0 mi Calm Calm - N/A   Haze
10:12 AM 25.0 °F - 21.0 °F 85% 29.87 in 2.5 mi Calm Calm - 0.01 in Rain Light Freezing Rain
10:29 AM 26.1 °F - 23.0 °F 88% 29.87 in 1.8 mi Calm Calm - 0.04 in Snow Light Snow
10:53 AM 28.0 °F 20.8 °F 25.0 °F 88% 29.84 in 1.2 mi ENE 6.9 mph - 0.13 in   Overcast
11:00 AM 28.9 °F 25.2 °F 27.0 °F 92% 29.82 in 1.8 mi NE 3.5 mph - 0.01 in   Overcast
11:06 AM 30.0 °F 25.2 °F 28.0 °F 92% 29.81 in 2.0 mi ENE 4.6 mph - 0.02 in Rain Light Freezing Rain
11:10 AM 30.0 °F 26.5 °F 28.0 °F 92% 29.81 in 1.8 mi NNE 3.5 mph - 0.03 in Rain Light Freezing Rain
11:24 AM 30.9 °F - 30.0 °F 96% 29.80 in 1.2 mi Calm Calm - 0.08 in Rain Light Freezing Rain
11:44 AM 32.0 °F 27.5 °F 30.0 °F 92% 29.78 in 1.5 mi NNE 4.6 mph - 0.14 in Rain Light Freezing Rain
11:53 AM 32.0 °F 27.5 °F 30.0 °F 92% 29.80 in 1.5 mi North 4.6 mph - 0.16 in Rain Light Freezing Rain
12:02 PM 32.0 °F 28.7 °F 30.0 °F 92% 29.78 in 1.5 mi North 3.5 mph - 0.02 in Rain Light Freezing Rain
12:06 PM 32.0 °F 27.5 °F 30.0 °F 92% 29.78 in 2.0 mi North 4.6 mph - 0.02 in Rain Light Freezing Rain
12:23 PM 32.0 °F 28.7 °F 30.9 °F 96% 29.76 in 2.5 mi NE 3.5 mph - 0.02 in   Overcast
12:34 PM 32.0 °F - 30.9 °F 96% 29.75 in 2.0 mi Calm Calm - 0.03 in Rain Light Freezing Rain
12:53 PM 32.0 °F 28.7 °F 32.0 °F 100% 29.76 in 2.0 mi ENE 3.5 mph - 0.03 in   Overcast
1:05 PM 32.0 °F 28.7 °F 30.9 °F 96% 29.74 in 1.8 mi East 3.5 mph - N/A   Overcast
1:14 PM 32.0 °F - 30.9 °F 96% 29.73 in 1.8 mi Calm Calm - N/A   Overcast
1:53 PM 33.1 °F 30.0 °F 30.9 °F 92% 29.73 in 1.8 mi East 3.5 mph - N/A   Overcast
2:02 PM 33.1 °F - 32.0 °F 96% 29.71 in 1.8 mi Calm Calm - N/A   Overcast
2:14 PM 33.1 °F - 32.0 °F 96% 29.71 in 2.0 mi Calm Calm - N/A   Overcast
2:53 PM 34.0 °F - 32.0 °F 92% 29.72 in 2.5 mi Calm Calm - N/A   Overcast
3:39 PM 34.0 °F - 34.0 °F 100% 29.69 in 3.0 mi Calm Calm - N/A   Overcast
3:53 PM 34.0 °F - 32.0 °F 92% 29.72 in 3.0 mi Calm Calm - N/A   Overcast
4:53 PM 35.1 °F - 32.0 °F 89% 29.74 in 3.0 mi Calm Calm - N/A   Overcast
5:13 PM 35.1 °F - 32.0 °F 89% 29.73 in 2.5 mi Calm Calm - 0.00 in   Overcast
5:34 PM 34.0 °F - 33.1 °F 96% 29.75 in 1.8 mi Calm Calm - 0.00 in   Overcast
5:44 PM 34.0 °F - 33.1 °F 96% 29.75 in 2.5 mi Calm Calm - 0.00 in   Overcast
5:53 PM 34.0 °F - 33.1 °F 96% 29.77 in 2.5 mi Calm Calm - 0.01 in   Overcast
6:27 PM 34.0 °F - 33.1 °F 96% 29.77 in 1.8 mi Calm Calm - 0.00 in   Mostly Cloudy
6:51 PM 33.8 °F - 33.8 °F 100% 29.78 in 2.0 mi Calm Calm - 0.00 in   Mostly Cloudy
6:53 PM 34.0 °F - 33.1 °F 96% 29.81 in 2.5 mi Calm Calm - 0.00 in   Mostly Cloudy
7:04 PM 35.1 °F 32.2 °F 33.1 °F 92% 29.79 in 2.5 mi SW 3.5 mph - N/A   Mostly Cloudy
7:12 PM 35.1 °F 32.2 °F 33.1 °F 92% 29.79 in 3.0 mi SW 3.5 mph - N/A   Mostly Cloudy
7:19 PM 35.1 °F 32.2 °F 33.1 °F 92% 29.80 in 3.0 mi SW 3.5 mph - N/A   Mostly Cloudy
7:26 PM 35.1 °F 32.2 °F 34.0 °F 96% 29.80 in 3.0 mi Variable 3.5 mph - N/A   Overcast
7:43 PM 36.0 °F - 34.0 °F 93% 29.83 in 2.0 mi Calm Calm - 0.02 in Rain Rain
7:53 PM 35.1 °F 32.2 °F 35.1 °F 100% 29.85 in 2.5 mi South 3.5 mph - 0.04 in Rain Light Rain
8:01 PM 35.1 °F 30.1 °F 35.1 °F 100% 29.84 in 2.5 mi South 5.8 mph - 0.00 in Rain Light Rain
8:31 PM 35.1 °F 30.1 °F 34.0 °F 96% 29.86 in 3.0 mi SSW 5.8 mph - 0.00 in   Overcast
8:53 PM 35.1 °F 31.0 °F 34.0 °F 96% 29.89 in 3.0 mi SW 4.6 mph - 0.00 in   Scattered Clouds
9:32 PM 35.1 °F 32.2 °F 34.0 °F 96% 29.90 in 2.5 mi Variable 3.5 mph - N/A   Mostly Cloudy
9:41 PM 36.0 °F 33.3 °F 34.0 °F 93% 29.91 in 4.0 mi SSW 3.5 mph - N/A   Overcast
9:53 PM 37.0 °F - 35.1 °F 93% 29.93 in 5.0 mi Calm Calm - N/A   Overcast
10:53 PM 42.1 °F 36.1 °F 30.9 °F 65% 29.96 in 10.0 mi WNW 10.4 mph 27.6 mph N/A   Clear
11:53 PM 39.9 °F 34.5 °F 28.9 °F 65% 30.00 in 10.0 mi WNW 8.1 mph - N/A   Clear